Weather History for Davenport, IA

Change the Weather History Date:

Sunday, July 21, 2013

  Actual Average Record
Temperature  
Mean Temperature 74 °F 73 °F  
Max Temperature 84 °F 83 °F 98 °F (1983)
Min Temperature 63 °F 63 °F 51 °F (2000)
Degree Days  
Heating Degree Days 0 0  
Month to date heating degree days 0 0  
Since 1 June heating degree days 24 24  
Since 1 July heating degree days 0 0  
Cooling Degree Days 9 8  
Month to date cooling degree days 214 177  
Year to date cooling degree days 505 420  
Since 1 June cooling degree days 410 359  
Growing Degree Days 24 (Base 50)    
Moisture  
Dew Point 65 °F    
Average Humidity 74    
Maximum Humidity 93    
Minimum Humidity 55    
Precipitation  
Precipitation 0.00 in 0.16 in 2.90 in (1948)
Month to date precipitation 0.65 2.96  
Year to date precipitation 26.05 19.96  
Snow  
Snow 0.00 in - - ()
Month to date snowfall 0.0  
Since 1 June snowfall 0.0  
Since 1 July snowfall 0.0  
Snow Depth 0.00 in    
Sea Level Pressure  
Sea Level Pressure 29.90 in    
Wind  
Wind Speed 6 mph (SSE)    
Max Wind Speed 16 mph    
Max Gust Speed 21 mph    
Visibility 10 miles    
Events      
T = Trace of Precipitation, MM = Missing Value Source: NWS Daily Summary

Daily Weather History Graph

Daily Weather History Graph

Search for Another Location

Airport:

Trip Planner

Search our weather history database for the weather conditions in past years. The results will help you decide how hot, cold, wet, or windy it might be!

Date:

Astronomy

Jul. 21, 2013 Rise Set
Actual Time 5:46 AM CDT 8:30 PM CDT
Civil Twilight 5:14 AM CDT 9:02 PM CDT
Nautical Twilight 4:33 AM CDT 9:43 PM CDT
Astronomical Twilight 3:46 AM CDT 10:29 PM CDT
Moon 7:28 PM CDT (7/21) 4:32 AM CDT (7/21)
Length of Visible Light 15h 48m
Length of Day
14h 43m
Waxing Gibbous, 98% of the Moon is Illuminated
Jul 21
Waxing Gibbous
Jul 22
Full
Jul 29
Last Quarter
Aug 6
New
Aug 14
First Quarter

Hourly Weather History & Observations

Time (CDT) Temp. Heat Index Dew Point Humidity Pressure Visibility Wind Dir Wind Speed Gust Speed Precip Events Conditions
12:52 AM 66.9 °F - 62.1 °F 84% 29.92 in 10.0 mi Calm Calm - N/A   Clear
1:52 AM 68.0 °F - 61.0 °F 78% 29.92 in 10.0 mi Calm Calm - N/A   Clear
2:52 AM 64.9 °F - 61.0 °F 87% 29.92 in 10.0 mi Calm Calm - N/A   Clear
3:52 AM 66.9 °F - 62.1 °F 84% 29.91 in 10.0 mi ESE 4.6 mph - N/A   Clear
4:52 AM 64.9 °F - 62.1 °F 90% 29.91 in 9.0 mi Calm Calm - N/A   Clear
5:52 AM 64.9 °F - 62.1 °F 90% 29.91 in 7.0 mi Calm Calm - N/A   Clear
6:52 AM 69.1 °F - 64.9 °F 87% 29.92 in 6.0 mi ESE 3.5 mph - N/A   Clear
7:52 AM 70.0 °F - 66.0 °F 87% 29.93 in 7.0 mi East 6.9 mph - N/A   Clear
8:52 AM 73.9 °F - 66.0 °F 76% 29.93 in 9.0 mi ESE 5.8 mph - N/A   Clear
9:52 AM 79.0 °F - 66.0 °F 64% 29.94 in 10.0 mi SE 6.9 mph - N/A   Clear
10:52 AM 82.0 °F 84.1 °F 66.0 °F 58% 29.93 in 10.0 mi SE 11.5 mph - N/A   Clear
11:52 AM 82.9 °F 85.0 °F 66.0 °F 56% 29.92 in 10.0 mi SSE 10.4 mph - N/A   Clear
12:52 PM 82.9 °F 85.4 °F 66.9 °F 58% 29.91 in 10.0 mi South 10.4 mph - N/A   Clear
1:52 PM 82.0 °F 83.8 °F 64.9 °F 56% 29.91 in 10.0 mi SSE 10.4 mph - N/A   Partly Cloudy
2:52 PM 84.0 °F 86.5 °F 66.9 °F 56% 29.90 in 10.0 mi SE 5.8 mph - N/A   Clear
3:52 PM 82.0 °F 84.9 °F 68.0 °F 62% 29.87 in 10.0 mi SSE 10.4 mph - N/A   Partly Cloudy
4:52 PM 81.0 °F 83.8 °F 68.0 °F 65% 29.86 in 10.0 mi SSW 12.7 mph - N/A   Clear
5:52 PM 79.0 °F - 69.1 °F 72% 29.84 in 10.0 mi South 9.2 mph - N/A   Partly Cloudy
6:16 PM 78.8 °F - 69.8 °F 74% 29.86 in 10.0 mi SSW 9.2 mph - N/A   Mostly Cloudy
6:52 PM 78.1 °F - 70.0 °F 76% 29.85 in 10.0 mi SW 4.6 mph - N/A   Scattered Clouds
7:52 PM 77.0 °F - 69.1 °F 76% 29.85 in 10.0 mi SSW 8.1 mph - N/A   Mostly Cloudy
8:52 PM 73.9 °F - 63.0 °F 68% 29.86 in 10.0 mi South 5.8 mph - N/A   Clear
9:52 PM 71.1 °F - 62.1 °F 73% 29.87 in 10.0 mi South 3.5 mph - N/A   Partly Cloudy
10:52 PM 71.1 °F - 63.0 °F 75% 29.87 in 10.0 mi West 3.5 mph - N/A   Overcast
11:52 PM 70.0 °F - 64.0 °F 81% 29.89 in 10.0 mi NNW 3.5 mph - N/A   Overcast